Time,TemperatureF,DewpointF,PressureIn,WindDirection,WindDirectionDegrees,WindSpeedMPH,WindSpeedGustMPH,Humidity,HourlyPrecipIn,Conditions,Clouds,dailyrainin,SoftwareType,DateUTC
2013-05-14 00:04:00,76.0,69.0,-100.00,ENE,69,7.0,14.0,80,0.00,,,0.04,,2013-05-14 10:04:00,
2013-05-14 00:14:00,76.0,69.0,-100.00,ENE,69,7.0,14.0,80,0.00,,,0.04,,2013-05-14 10:14:00,
2013-05-14 00:25:00,76.0,69.0,-100.00,ENE,69,7.0,14.0,80,0.00,,,0.04,,2013-05-14 10:25:00,
2013-05-14 00:32:00,76.0,69.0,-100.00,ENE,69,7.0,14.0,80,0.00,,,0.04,,2013-05-14 10:32:00,
2013-05-14 00:41:00,76.0,69.0,-100.00,NE,54,6.0,11.0,79,0.00,,,0.04,,2013-05-14 10:41:00,
2013-05-14 01:02:00,76.0,69.0,-100.00,NE,54,6.0,11.0,79,0.00,,,0.04,,2013-05-14 11:02:00,
2013-05-14 01:11:00,76.0,69.0,-100.00,NE,54,6.0,11.0,79,0.00,,,0.04,,2013-05-14 11:11:00,
2013-05-14 01:21:00,76.0,69.0,-100.00,NE,54,6.0,11.0,79,0.00,,,0.04,,2013-05-14 11:21:00,
2013-05-14 01:32:00,76.0,69.0,-100.00,NE,54,6.0,11.0,79,0.00,,,0.04,,2013-05-14 11:32:00,
2013-05-14 01:41:00,76.0,69.0,-100.00,NE,55,4.0,11.0,79,0.00,,,0.04,,2013-05-14 11:41:00,
2013-05-14 02:02:00,76.0,69.0,-100.00,NE,55,4.0,11.0,79,0.00,,,0.04,,2013-05-14 12:02:00,
2013-05-14 02:12:00,76.0,69.0,-100.00,NE,55,4.0,11.0,79,0.00,,,0.04,,2013-05-14 12:12:00,
2013-05-14 02:21:00,76.0,69.0,-100.00,NE,55,4.0,11.0,79,0.00,,,0.04,,2013-05-14 12:21:00,
2013-05-14 02:31:00,76.0,69.0,-100.00,NE,55,4.0,11.0,79,0.00,,,0.04,,2013-05-14 12:31:00,
2013-05-14 02:41:00,75.0,68.0,-100.00,NNE,21,4.0,9.0,80,0.00,,,0.04,,2013-05-14 12:41:00,
2013-05-14 03:01:00,75.0,68.0,-100.00,NNE,21,4.0,9.0,80,0.00,,,0.04,,2013-05-14 13:01:00,
2013-05-14 03:11:00,75.0,68.0,-100.00,NNE,21,4.0,9.0,80,0.00,,,0.04,,2013-05-14 13:11:00,
2013-05-14 03:22:00,75.0,68.0,-100.00,NNE,21,4.0,9.0,80,0.00,,,0.04,,2013-05-14 13:22:00,
2013-05-14 03:32:00,75.0,68.0,-100.00,NNE,21,4.0,9.0,80,0.00,,,0.04,,2013-05-14 13:32:00,
2013-05-14 03:41:00,74.0,68.0,-100.00,NNE,24,4.0,7.0,82,0.00,,,0.04,,2013-05-14 13:41:00,
2013-05-14 04:01:00,74.0,68.0,-100.00,NNE,24,4.0,7.0,82,0.00,,,0.04,,2013-05-14 14:01:00,
2013-05-14 04:11:00,74.0,68.0,-100.00,NNE,24,4.0,7.0,82,0.00,,,0.04,,2013-05-14 14:11:00,
2013-05-14 04:22:00,74.0,68.0,-100.00,NNE,24,4.0,7.0,82,0.00,,,0.04,,2013-05-14 14:22:00,
2013-05-14 04:31:00,74.0,68.0,-100.00,NNE,24,4.0,7.0,82,0.00,,,0.04,,2013-05-14 14:31:00,
2013-05-14 04:41:00,75.0,69.0,-100.00,East,79,5.0,9.0,83,0.00,,,0.01,,2013-05-14 14:41:00,
2013-05-14 05:01:00,75.0,69.0,-100.00,East,79,5.0,9.0,83,0.00,,,0.01,,2013-05-14 15:01:00,
2013-05-14 05:12:00,75.0,69.0,-100.00,East,79,5.0,9.0,83,0.00,,,0.01,,2013-05-14 15:12:00,
2013-05-14 05:21:00,75.0,69.0,-100.00,East,79,5.0,9.0,83,0.00,,,0.01,,2013-05-14 15:21:00,
2013-05-14 05:32:00,75.0,69.0,-100.00,East,79,5.0,9.0,83,0.00,,,0.01,,2013-05-14 15:32:00,
2013-05-14 05:41:00,74.0,69.0,-100.00,NNE,24,4.0,9.0,84,0.00,,,0.01,,2013-05-14 15:41:00,
2013-05-14 06:02:00,74.0,69.0,-100.00,NNE,24,4.0,9.0,84,0.00,,,0.01,,2013-05-14 16:02:00,
2013-05-14 06:12:00,74.0,69.0,-100.00,NNE,24,4.0,9.0,84,0.00,,,0.01,,2013-05-14 16:12:00,
2013-05-14 06:23:00,74.0,69.0,-100.00,NNE,24,4.0,9.0,84,0.00,,,0.01,,2013-05-14 16:23:00,
2013-05-14 06:33:00,74.0,69.0,-100.00,NNE,24,4.0,9.0,84,0.00,,,0.01,,2013-05-14 16:33:00,
2013-05-14 06:41:00,75.0,70.0,-100.00,NE,39,5.0,10.0,85,0.00,,,0.01,,2013-05-14 16:41:00,
2013-05-14 07:03:00,75.0,70.0,-100.00,NE,39,5.0,10.0,85,0.00,,,0.01,,2013-05-14 17:03:00,
2013-05-14 07:13:00,75.0,70.0,-100.00,NE,39,5.0,10.0,85,0.00,,,0.01,,2013-05-14 17:13:00,
2013-05-14 07:24:00,75.0,70.0,-100.00,NE,39,5.0,10.0,85,0.00,,,0.01,,2013-05-14 17:24:00,
2013-05-14 07:32:00,75.0,70.0,-100.00,NE,39,5.0,10.0,85,0.00,,,0.01,,2013-05-14 17:32:00,
2013-05-14 07:41:00,77.0,71.0,-100.00,ENE,75,8.0,12.0,83,0.00,,,0.00,,2013-05-14 17:41:00,
2013-05-14 08:02:00,77.0,71.0,-100.00,ENE,75,8.0,12.0,83,0.00,,,0.00,,2013-05-14 18:02:00,
2013-05-14 08:12:00,77.0,71.0,-100.00,ENE,75,8.0,12.0,83,0.00,,,0.00,,2013-05-14 18:12:00,
2013-05-14 08:22:00,77.0,71.0,-100.00,ENE,75,8.0,12.0,83,0.00,,,0.00,,2013-05-14 18:22:00,
2013-05-14 08:32:00,77.0,71.0,-100.00,ENE,75,8.0,12.0,83,0.00,,,0.00,,2013-05-14 18:32:00,
2013-05-14 08:41:00,79.0,72.0,-100.00,East,87,9.0,15.0,79,0.00,,,0.00,,2013-05-14 18:41:00,
2013-05-14 09:01:00,79.0,72.0,-100.00,East,87,9.0,15.0,79,0.00,,,0.00,,2013-05-14 19:01:00,
2013-05-14 09:11:00,79.0,72.0,-100.00,East,87,9.0,15.0,79,0.00,,,0.00,,2013-05-14 19:11:00,
2013-05-14 09:22:00,79.0,72.0,-100.00,East,87,9.0,15.0,79,0.00,,,0.00,,2013-05-14 19:22:00,
2013-05-14 09:31:00,79.0,72.0,-100.00,East,87,9.0,15.0,79,0.00,,,0.00,,2013-05-14 19:31:00,
2013-05-14 09:41:00,80.0,71.0,-100.00,East,82,10.0,16.0,75,0.00,,,0.00,,2013-05-14 19:41:00,
2013-05-14 10:02:00,80.0,71.0,-100.00,East,82,10.0,16.0,75,0.00,,,0.00,,2013-05-14 20:02:00,
2013-05-14 10:11:00,80.0,71.0,-100.00,East,82,10.0,16.0,75,0.00,,,0.00,,2013-05-14 20:11:00,
2013-05-14 10:22:00,80.0,71.0,-100.00,East,82,10.0,16.0,75,0.00,,,0.00,,2013-05-14 20:22:00,
2013-05-14 10:32:00,80.0,71.0,-100.00,East,82,10.0,16.0,75,0.00,,,0.00,,2013-05-14 20:32:00,
2013-05-14 10:41:00,81.0,71.0,-100.00,East,80,11.0,17.0,71,0.00,,,0.00,,2013-05-14 20:41:00,
2013-05-14 11:03:00,81.0,71.0,-100.00,East,80,11.0,17.0,71,0.00,,,0.00,,2013-05-14 21:03:00,
2013-05-14 11:12:00,81.0,71.0,-100.00,East,80,11.0,17.0,71,0.00,,,0.00,,2013-05-14 21:12:00,
2013-05-14 11:22:00,81.0,71.0,-100.00,East,80,11.0,17.0,71,0.00,,,0.00,,2013-05-14 21:22:00,
2013-05-14 11:33:00,81.0,71.0,-100.00,East,80,11.0,17.0,71,0.00,,,0.00,,2013-05-14 21:33:00,
2013-05-14 11:41:00,82.0,71.0,-100.00,ENE,75,10.0,20.0,69,0.00,,,0.00,,2013-05-14 21:41:00,
2013-05-14 12:03:00,82.0,71.0,-100.00,ENE,75,10.0,20.0,69,0.00,,,0.00,,2013-05-14 22:03:00,
2013-05-14 12:13:00,82.0,71.0,-100.00,ENE,75,10.0,20.0,69,0.00,,,0.00,,2013-05-14 22:13:00,
2013-05-14 12:24:00,82.0,71.0,-100.00,ENE,75,10.0,20.0,69,0.00,,,0.00,,2013-05-14 22:24:00,
2013-05-14 12:34:00,82.0,71.0,-100.00,ENE,75,10.0,20.0,69,0.00,,,0.00,,2013-05-14 22:34:00,
2013-05-14 12:41:00,82.0,69.0,-100.00,East,80,11.0,17.0,66,0.00,,,0.00,,2013-05-14 22:41:00,
2013-05-14 13:03:00,82.0,69.0,-100.00,East,80,11.0,17.0,66,0.00,,,0.00,,2013-05-14 23:03:00,
2013-05-14 13:12:00,82.0,69.0,-100.00,East,80,11.0,17.0,66,0.00,,,0.00,,2013-05-14 23:12:00,
2013-05-14 13:21:00,82.0,69.0,-100.00,East,80,11.0,17.0,66,0.00,,,0.00,,2013-05-14 23:21:00,
2013-05-14 13:31:00,82.0,69.0,-100.00,East,80,11.0,17.0,66,0.00,,,0.00,,2013-05-14 23:31:00,
2013-05-14 13:41:00,82.0,69.0,-100.00,NE,41,10.0,18.0,65,0.00,,,0.00,,2013-05-14 23:41:00,
2013-05-14 14:01:00,82.0,69.0,-100.00,NE,41,10.0,18.0,65,0.00,,,0.00,,2013-05-15 00:01:00,
2013-05-14 14:11:00,82.0,69.0,-100.00,NE,41,10.0,18.0,65,0.00,,,0.00,,2013-05-15 00:11:00,
2013-05-14 14:21:00,82.0,69.0,-100.00,NE,41,10.0,18.0,65,0.00,,,0.00,,2013-05-15 00:21:00,
2013-05-14 14:32:00,82.0,69.0,-100.00,NE,41,10.0,18.0,65,0.00,,,0.00,,2013-05-15 00:32:00,
2013-05-14 14:41:00,82.0,69.0,-100.00,ENE,67,10.0,20.0,65,0.00,,,0.00,,2013-05-15 00:41:00,
2013-05-14 15:01:00,82.0,69.0,-100.00,ENE,67,10.0,20.0,65,0.00,,,0.00,,2013-05-15 01:01:00,
2013-05-14 15:11:00,82.0,69.0,-100.00,ENE,67,10.0,20.0,65,0.00,,,0.00,,2013-05-15 01:11:00,
2013-05-14 15:21:00,82.0,69.0,-100.00,ENE,67,10.0,20.0,65,0.00,,,0.00,,2013-05-15 01:21:00,
2013-05-14 15:31:00,82.0,69.0,-100.00,ENE,67,10.0,20.0,65,0.00,,,0.00,,2013-05-15 01:31:00,
2013-05-14 15:41:00,81.0,68.0,-100.00,ENE,69,10.0,19.0,64,0.00,,,0.00,,2013-05-15 01:41:00,
2013-05-14 16:01:00,81.0,68.0,-100.00,ENE,69,10.0,19.0,64,0.00,,,0.00,,2013-05-15 02:01:00,
2013-05-14 16:11:00,81.0,68.0,-100.00,ENE,69,10.0,19.0,64,0.00,,,0.00,,2013-05-15 02:11:00,
2013-05-14 16:21:00,81.0,68.0,-100.00,ENE,69,10.0,19.0,64,0.00,,,0.00,,2013-05-15 02:21:00,
2013-05-14 16:31:00,81.0,68.0,-100.00,ENE,69,10.0,19.0,64,0.00,,,0.00,,2013-05-15 02:31:00,
2013-05-14 16:41:00,81.0,68.0,-100.00,East,83,12.0,18.0,65,0.00,,,0.00,,2013-05-15 02:41:00,
2013-05-14 17:01:00,81.0,68.0,-100.00,East,83,12.0,18.0,65,0.00,,,0.00,,2013-05-15 03:01:00,
2013-05-14 17:12:00,81.0,68.0,-100.00,East,83,12.0,18.0,65,0.00,,,0.00,,2013-05-15 03:12:00,
2013-05-14 17:21:00,81.0,68.0,-100.00,East,83,12.0,18.0,65,0.00,,,0.00,,2013-05-15 03:21:00,
2013-05-14 17:33:00,81.0,68.0,-100.00,East,83,12.0,18.0,65,0.00,,,0.00,,2013-05-15 03:33:00,
2013-05-14 17:41:00,80.0,67.0,-100.00,ENE,76,11.0,19.0,65,0.00,,,0.00,,2013-05-15 03:41:00,
2013-05-14 18:03:00,80.0,67.0,-100.00,ENE,76,11.0,19.0,65,0.00,,,0.00,,2013-05-15 04:03:00,
2013-05-14 18:12:00,80.0,67.0,-100.00,ENE,76,11.0,19.0,65,0.00,,,0.00,,2013-05-15 04:12:00,
2013-05-14 18:23:00,80.0,67.0,-100.00,ENE,76,11.0,19.0,65,0.00,,,0.00,,2013-05-15 04:23:00,
2013-05-14 18:33:00,80.0,67.0,-100.00,ENE,76,11.0,19.0,65,0.00,,,0.00,,2013-05-15 04:33:00,
2013-05-14 18:41:00,78.0,66.0,-100.00,East,79,12.0,20.0,66,0.00,,,0.00,,2013-05-15 04:41:00,
2013-05-14 19:02:00,78.0,66.0,-100.00,East,79,12.0,20.0,66,0.00,,,0.00,,2013-05-15 05:02:00,
2013-05-14 19:12:00,78.0,66.0,-100.00,East,79,12.0,20.0,66,0.00,,,0.00,,2013-05-15 05:12:00,
2013-05-14 19:22:00,78.0,66.0,-100.00,East,79,12.0,20.0,66,0.00,,,0.00,,2013-05-15 05:22:00,
2013-05-14 19:32:00,78.0,66.0,-100.00,East,79,12.0,20.0,66,0.00,,,0.00,,2013-05-15 05:32:00,
2013-05-14 19:41:00,77.0,66.0,-100.00,ENE,63,10.0,16.0,68,0.00,,,0.00,,2013-05-15 05:41:00,
2013-05-14 20:02:00,77.0,66.0,-100.00,ENE,63,10.0,16.0,68,0.00,,,0.00,,2013-05-15 06:02:00,
2013-05-14 20:11:00,77.0,66.0,-100.00,ENE,63,10.0,16.0,68,0.00,,,0.00,,2013-05-15 06:11:00,
2013-05-14 20:21:00,77.0,66.0,-100.00,ENE,63,10.0,16.0,68,0.00,,,0.00,,2013-05-15 06:21:00,
2013-05-14 20:31:00,77.0,66.0,-100.00,ENE,63,10.0,16.0,68,0.00,,,0.00,,2013-05-15 06:31:00,
2013-05-14 20:41:00,77.0,66.0,-100.00,ENE,70,8.0,17.0,70,0.00,,,0.00,,2013-05-15 06:41:00,
2013-05-14 21:01:00,77.0,66.0,-100.00,ENE,70,8.0,17.0,70,0.00,,,0.00,,2013-05-15 07:01:00,
2013-05-14 21:11:00,77.0,66.0,-100.00,ENE,70,8.0,17.0,70,0.00,,,0.00,,2013-05-15 07:11:00,
2013-05-14 21:21:00,77.0,66.0,-100.00,ENE,70,8.0,17.0,70,0.00,,,0.00,,2013-05-15 07:21:00,
2013-05-14 21:32:00,77.0,66.0,-100.00,ENE,70,8.0,17.0,70,0.00,,,0.00,,2013-05-15 07:32:00,
2013-05-14 21:41:00,76.0,66.0,-100.00,NE,48,6.0,13.0,72,0.00,,,0.00,,2013-05-15 07:41:00,
2013-05-14 22:02:00,76.0,66.0,-100.00,NE,48,6.0,13.0,72,0.00,,,0.00,,2013-05-15 08:02:00,
2013-05-14 22:12:00,76.0,66.0,-100.00,NE,48,6.0,13.0,72,0.00,,,0.00,,2013-05-15 08:12:00,
2013-05-14 22:21:00,76.0,66.0,-100.00,NE,48,6.0,13.0,72,0.00,,,0.00,,2013-05-15 08:21:00,
2013-05-14 22:32:00,76.0,66.0,-100.00,NE,48,6.0,13.0,72,0.00,,,0.00,,2013-05-15 08:32:00,
2013-05-14 22:41:00,76.0,67.0,-100.00,ENE,76,8.0,15.0,73,0.00,,,0.00,,2013-05-15 08:41:00,
2013-05-14 23:01:00,76.0,67.0,-100.00,ENE,76,8.0,15.0,73,0.00,,,0.00,,2013-05-15 09:01:00,
2013-05-14 23:11:00,76.0,67.0,-100.00,ENE,76,8.0,15.0,73,0.00,,,0.00,,2013-05-15 09:11:00,
2013-05-14 23:21:00,76.0,67.0,-100.00,ENE,76,8.0,15.0,73,0.00,,,0.00,,2013-05-15 09:21:00,
2013-05-14 23:32:00,76.0,67.0,-100.00,ENE,76,8.0,15.0,73,0.00,,,0.00,,2013-05-15 09:32:00,
2013-05-14 23:41:00,76.0,67.0,-100.00,ENE,62,6.0,14.0,73,0.00,,,0.00,,2013-05-15 09:41:00,